#timestamp,LO_Frequency,Hit,StdDev 
1698440415.3,286046998.7,N
1698440435.1,286047000.8,N
1698440455.9,286046998.5,N
1698440475.7,286047000.3,N
1698440495.5,286047001.2,N
1698440515.4,286047000.8,N
1698440535.2,286047001.0,N
1698440555.0,286047000.0,N
1698440555.9,286047000.0,N
1698440575.8,286047002.2,N
1698440595.6,286046999.7,N
1698440615.5,286047000.7,N
1698440635.3,286047000.6,N
1698440655.1,286047000.7,N
1698440675.9,286047001.0,N
1698440695.7,286047000.9,N
1698440715.5,286047000.2,N
1698440735.4,286047002.5,N
1698440755.2,286047000.0,N
1698440775.1,286047002.1,N
1698440776.0,286047002.1,N
1698440795.8,286047000.7,N
1698440815.6,286047000.5,N
1698440835.5,286047000.6,N
1698440855.3,286047000.9,N
1698440875.1,286047000.5,N
1698440895.9,286046999.8,N
1698440915.7,286047002.0,N
1698440935.6,286047011.9,Y
1698440955.4,286047002.0,P
1698440975.2,286047002.4,P
1698440995.1,286047002.3,P
1698440996.0,286047002.3,Y
1698441015.8,286046998.7,P
1698441035.7,286046998.4,N
1698441055.5,286046999.2,N
1698441075.3,286046999.2,N
1698441095.2,286046997.9,N
1698441115.0,286046997.4,N
1698441115.9,286046997.4,N
1698441135.8,286046997.3,N
1698441155.6,286046996.8,N
1698441175.4,286046999.2,N
1698441195.3,286046998.9,N
1698441215.1,286046998.5,N
1698441216.0,286046998.5,N
1698441235.8,286046999.3,N
1698441255.7,286046998.3,N
1698441275.5,286046998.5,N
1698441295.4,286046999.3,N
1698441315.2,286046998.6,N
1698441335.0,286046998.9,N
1698441335.9,286046998.9,N
1698441355.8,286046998.7,N
1698441375.6,286046996.5,Y
1698441395.5,286047000.4,P
1698441415.3,286047001.1,N
1698441435.1,286046998.3,N
1698441455.9,286047000.9,N
1698441475.7,286047000.5,N
1698441495.5,286047000.0,N
1698441515.4,286047000.2,N
1698441535.2,286047000.6,N
1698441555.1,286046999.9,N
1698441556.0,286046999.9,N
1698441575.8,286047000.9,N
1698441595.6,286046999.8,N
1698441615.5,286047002.3,N
1698441635.3,286047001.9,N
1698441655.2,286047002.2,N
1698441675.9,286047002.6,N
1698441695.7,286047000.0,N
1698441715.6,286047000.3,N
1698441735.4,286047001.0,N
1698441755.2,286047000.3,N
1698441775.1,286047000.5,N
1698441776.0,286047000.5,N
1698441795.8,286047002.6,N
1698441815.7,286047001.5,N
1698441835.5,286047004.4,Y
1698441855.4,286047004.2,P
1698441875.2,286047001.8,N
1698441895.0,286047001.8,N
1698441895.9,286047001.8,N
1698441915.8,286047001.5,N
1698441935.6,286047001.6,N
1698441955.4,286047001.4,N
1698441975.3,286047004.3,Y
1698441995.1,286047002.6,P
1698442015.9,286047000.5,N
1698442035.7,286047002.2,N
1698442055.5,286047000.3,N
1698442075.4,286046998.6,N
1698442095.2,286046998.3,N
1698442115.0,286046998.2,N
1698442115.9,286046998.2,N
1698442135.8,286046998.3,N
1698442155.6,286046998.1,N
1698442175.5,286046998.6,N
1698442195.3,286046998.7,N
1698442215.2,286046996.7,N
1698442235.9,286046996.9,N
1698442285.8,286046999.3,E
1698442295.7,286046998.8,N
1698442315.5,286046998.4,P
1698442335.4,286046998.5,P
1698442355.2,286047001.2,Y
1698442375.0,286047002.7,P
1698442375.9,286047002.7,N
1698442395.8,286047002.5,N
1698442415.6,286047002.6,N
1698442435.5,286046999.9,N
1698442455.3,286047002.3,N
1698442475.1,286047002.4,N
1698442495.9,286047001.8,N
1698442515.7,286047004.1,N
1698442535.5,286047001.7,N
1698442555.4,286047001.4,N
1698442575.2,286047002.3,N
1698442595.1,286047002.2,N
1698442596.0,286047002.2,N
1698442615.8,286047002.6,N
1698442635.6,286047001.8,N
1698442655.5,286047002.0,N
1698442675.3,286047001.5,N
1698442695.2,286047001.6,N
1698442715.9,286047002.5,N
1698442735.7,286047001.9,N
1698442755.6,286047002.7,N
1698442775.4,286047000.2,N
1698442795.3,286046999.8,N
1698442815.1,286047000.4,N
1698442816.0,286047000.4,N
1698442835.8,286047001.0,N
1698442855.7,286047000.6,N
1698442875.5,286046998.2,N
1698442895.4,286047000.1,N
1698442915.2,286046999.8,N
1698442935.0,286047000.5,N
1698442935.9,286047000.5,N
1698442955.8,286046998.3,N
1698442975.6,286046999.5,N
1698442995.5,286046997.2,N
1698443015.3,286046997.1,N
1698443035.1,286046997.3,N
1698443055.9,286046997.6,N
1698443075.7,286046997.6,N
1698443095.6,286046994.9,N
1698443115.4,286046995.7,N
1698443135.2,286046996.1,N
1698443155.1,286046996.0,N
1698443156.0,286046996.0,N
1698443175.8,286046993.8,N
1698443195.6,286046994.0,N
1698443215.5,286046991.7,Y
1698443235.3,286046993.8,P
1698443255.2,286046993.4,N
1698443275.9,286046994.2,N
1698443295.7,286046995.7,N
1698443315.6,286046996.2,N
1698443335.4,286046993.9,Y
1698443355.3,286046999.5,P
1698443375.1,286046999.1,N
1698443395.8,286046999.1,N
1698443415.7,286046998.6,N
1698443435.5,286046998.2,N
1698443455.4,286046998.4,N
1698443475.2,286046998.9,N
1698443495.0,286046997.8,N
1698443495.9,286046997.8,N
1698443515.8,286046997.4,N
1698443535.6,286046998.0,N
1698443555.5,286046996.4,Y
1698443575.3,286046996.5,P
1698443595.1,286047011.9,P
1698443615.9,286046996.9,N
1698443635.7,286046996.8,N
1698443655.6,286046996.9,N
1698443675.4,286046998.3,N
1698443695.2,286046999.4,N
1698443715.1,286046998.4,N
1698443716.0,286046998.4,N
1698443735.8,286046996.9,N
1698443755.6,286046999.2,N
1698443775.5,286046999.0,N
1698443795.3,286046999.6,N
1698443815.2,286046997.2,N
1698443835.9,286046997.3,N
1698443855.7,286046997.6,N
1698443875.6,286046995.1,N
1698443895.4,286046997.2,N
1698443915.3,286046995.0,N
1698443935.1,286046996.1,N
1698443936.0,286046996.1,N
1698443955.8,286046996.2,N
1698443975.7,286046998.0,N
1698443995.5,286046997.6,N
